Content
SEND FEEDBACK

Daily
Averages
Monthly
Summary
United States of America

BELFAST, MAINE


Home > North America > United States > Maine
Elevation: 195 feet     Latitude: 44 24N     Longitude: 069 00W

WEATHER
 
SELECT A DAY
Number of Records: 466,553;   Date Range: 1/1/95 - 12/26/14
 
SHARE

PRINT THIS DATA

[ ← Previous Day ]
WEATHER ALMANAC - JANUARY 31, 2013
[ Next Day → ]
[ °C ]   °F
Weather ElementAverageHighLow
Temperature45.8 °F53.6 °F (12:35 am)30.2 °F (11:35 pm)
Dewpoint36.6 °F53.6 °F (12:55 am)10.4 °F (10:55 pm)
Humidity73.7 %100 % (12:55 am)41 % (6:35 pm)
Barometer29.16 in29.43 in (12:35 am)28.84 in (11:35 am)
Wind Speed20.2 mph26.5 mph (8:35 am)
Wind Gust44.9 mph (8:35 am)
Weather ElementAverage
Visibility7.3 mi
Wind DirectionSW (221.2 °)

Weather ElementTotal
Precipitation0.19 in
Heating Degree Days23.1 (Base 65)
Averaged from 68 records on January 31, 2013
WEATHER CONDITIONS BREAKOUT
WIND DIRECTION BREAKOUT
WEATHER BY HOUR - JANUARY 31, 2013
[ °C ]   °F
Local TimeTemperatureDewpointHumidityBarometerVisibilityWind DirectionWind SpeedGust SpeedPrecipitationEventsConditions
12:35 AM53.6 °F51.8 °F94 %29.43 in7.0 miSSW (210°)18.4 mph27.6 mphOvercast
12:55 AM53.6 °F53.6 °F100 %29.43 in6.0 miSSW (210°)17.3 mph32.2 mphOvercast
1:15 AM51.8 °F50.0 °F94 %29.42 in5.0 miSSW (210°)20.7 mph31.1 mph0.01 inOvercast
1:35 AM51.8 °F50.0 °F94 %29.42 in5.0 miSSW (200°)16.1 mph31.1 mph0.01 inOvercast
1:55 AM50.0 °F48.2 °F94 %29.41 in4.0 miSSW (200°)13.8 mph23.0 mph0.01 inOvercast
2:15 AM50.0 °F50.0 °F100 %29.39 in2.0 miSSW (210°)15.0 mph23.0 mphOvercast
2:35 AM50.0 °F50.0 °F100 %29.36 in1.8 miSouth (190°)17.3 mph26.5 mphOvercast
2:55 AM50.0 °F50.0 °F100 %29.34 in3.0 miSouth (190°)15.0 mph28.8 mphOvercast
3:15 AM51.8 °F51.8 °F100 %29.33 in6.0 miSSW (200°)20.7 mph31.1 mphOvercast
3:35 AM51.8 °F51.8 °F100 %29.31 in6.0 miSouth (190°)20.7 mph34.5 mphOvercast
3:55 AM51.8 °F51.8 °F100 %29.28 in6.0 miSouth (190°)18.4 mph29.9 mph0.01 inOvercast
4:15 AM51.8 °F51.8 °F100 %29.27 in5.0 miSouth (190°)19.6 mph31.1 mphOvercast
4:35 AM51.8 °F51.8 °F100 %29.24 in6.0 miSouth (190°)18.4 mph32.2 mphOvercast
4:55 AM51.8 °F51.8 °F100 %29.22 in5.0 miSouth (190°)18.4 mph28.8 mphOvercast
5:15 AM51.8 °F50.0 °F94 %29.20 in5.0 miSouth (190°)16.1 mph29.9 mphOvercast
5:35 AM50.0 °F48.2 °F94 %29.18 in5.0 miSouth (180°)16.1 mph28.8 mphOvercast
5:55 AM51.8 °F50.0 °F94 %29.16 in5.0 miSouth (170°)20.7 mph31.1 mphOvercast
6:15 AM51.8 °F50.0 °F94 %29.15 in4.0 miSouth (180°)21.9 mph34.5 mphOvercast
6:55 AM51.8 °F50.0 °F94 %29.10 in5.0 miSouth (180°)19.6 mph32.2 mphOvercast
7:15 AM50.0 °F50.0 °F100 %29.08 in5.0 miSouth (190°)18.4 mph28.8 mphOvercast
7:35 AM51.8 °F50.0 °F94 %29.05 in3.0 miSouth (180°)20.7 mph32.2 mph0.02 inOvercast
7:55 AM51.8 °F51.8 °F100 %29.02 in3.0 miSouth (180°)24.2 mph34.5 mph0.03 inOvercast
8:15 AM53.6 °F53.6 °F100 %29.00 in4.0 miSSW (200°)21.9 mph36.8 mph0.01 inOvercast
8:35 AM53.6 °F53.6 °F100 %29.01 in3.0 miSSW (200°)26.5 mph44.9 mph0.02 inOvercast
8:55 AM53.6 °F51.8 °F94 %28.99 in5.0 miSSW (200°)21.9 mph39.1 mph0.02 inMostly Cloudy
9:15 AM53.6 °F51.8 °F94 %28.98 in7.0 miSSW (210°)23.0 mph33.4 mphMostly Cloudy
9:35 AM53.6 °F51.8 °F94 %28.95 in3.0 miSSW (200°)23.0 mph34.5 mphOvercast
9:55 AM51.8 °F51.8 °F100 %28.92 in4.0 miSouth (190°)21.9 mph33.4 mph0.02 inOvercast
10:15 AM51.8 °F50.0 °F94 %28.91 in7.0 miSouth (190°)21.9 mph33.4 mph0.01 inOvercast
10:35 AM51.8 °F51.8 °F100 %28.88 in4.0 miSSW (200°)18.4 mph34.5 mph0.01 inOvercast
10:55 AM51.8 °F51.8 °F100 %28.86 in2.5 miSSW (200°)21.9 mph38.0 mph0.01 inOvercast
11:15 AM51.8 °F51.8 °F100 %28.85 in4.0 miSSW (200°)21.9 mph34.5 mphOvercast
11:35 AM51.8 °F50.0 °F94 %28.84 in3.0 miSW (220°)25.3 mph38.0 mphOvercast
11:55 AM51.8 °F46.4 °F82 %28.87 in10.0 miWSW (250°)23.0 mph39.1 mphMostly Cloudy
12:15 PM50.0 °F42.8 °F76 %28.88 in10.0 miWSW (250°)16.1 mph35.7 mphMostly Cloudy
12:35 PM48.2 °F42.8 °F82 %28.91 in10.0 miWSW (240°)21.9 mph29.9 mphMostly Cloudy
12:55 PM48.2 °F39.2 °F71 %28.94 in10.0 miWSW (240°)26.5 mph43.7 mphScattered Clouds
1:15 PM48.2 °F41.0 °F76 %28.96 in10.0 miWSW (240°)21.9 mph34.5 mphMostly Cloudy
1:35 PM48.2 °F37.4 °F66 %28.97 in10.0 miWSW (250°)25.3 mph33.4 mphMostly Cloudy
1:55 PM48.2 °F33.8 °F58 %28.98 in10.0 miWSW (250°)25.3 mph34.5 mphPartly Cloudy
2:15 PM48.2 °F30.2 °F50 %29.01 in10.0 miWSW (240°)21.9 mph41.4 mphClear
2:35 PM46.4 °F30.2 °F53 %29.02 in10.0 miWSW (250°)18.4 mph32.2 mphClear
2:55 PM46.4 °F30.2 °F53 %29.04 in10.0 miWSW (250°)17.3 mph32.2 mphClear
3:15 PM46.4 °F30.2 °F53 %29.06 in10.0 miSW (230°)19.6 mph26.5 mphClear
3:35 PM44.6 °F28.4 °F53 %29.08 in10.0 miSW (230°)18.4 mph28.8 mphClear
3:55 PM44.6 °F26.6 °F49 %29.10 in10.0 miWSW (240°)20.7 mph28.8 mphClear
4:15 PM42.8 °F26.6 °F53 %29.11 in10.0 miWSW (240°)18.4 mph26.5 mphClear
4:35 PM42.8 °F24.8 °F49 %29.14 in10.0 miWSW (240°)18.4 mph29.9 mphPartly Cloudy
4:55 PM39.2 °F21.2 °F49 %29.16 in10.0 miWSW (250°)19.6 mph29.9 mphPartly Cloudy
5:15 PM39.2 °F21.2 °F49 %29.18 in10.0 miWSW (240°)21.9 mph33.4 mphScattered Clouds
5:55 PM37.4 °F19.4 °F48 %29.21 in10.0 miWSW (250°)21.9 mph28.8 mphMostly Cloudy
6:15 PM37.4 °F17.6 °F45 %29.23 in10.0 miWSW (250°)21.9 mph39.1 mphScattered Clouds
6:35 PM37.4 °F15.8 °F41 %29.24 in10.0 miWSW (250°)24.2 mph32.2 mphClear
7:15 PM35.6 °F17.6 °F48 %29.27 in10.0 miWSW (240°)19.6 mph24.2 mphClear
7:35 PM35.6 °F15.8 °F44 %29.28 in10.0 miWest (260°)20.7 mph31.1 mphClear
7:55 PM35.6 °F14.0 °F41 %29.29 in10.0 miWSW (240°)19.6 mph26.5 mphClear
8:15 PM35.6 °F15.8 °F44 %29.29 in10.0 miWSW (250°)21.9 mph28.8 mphClear
8:35 PM35.6 °F14.0 °F41 %29.31 in10.0 miWSW (250°)24.2 mph36.8 mphClear
8:55 PM33.8 °F15.8 °F48 %29.32 in10.0 miWest (260°)19.6 mph29.9 mphClear
9:15 PM33.8 °F12.2 °F41 %29.33 in10.0 miWSW (250°)23.0 mph28.8 mphClear
9:35 PM33.8 °F12.2 °F41 %29.34 in10.0 miWSW (240°)18.4 mph28.8 mphPartly Cloudy
9:55 PM33.8 °F12.2 °F41 %29.34 in10.0 miWSW (240°)16.1 mph33.4 mphClear
10:15 PM33.8 °F12.2 °F41 %29.35 in10.0 miWSW (250°)18.4 mph33.4 mphClear
10:35 PM33.8 °F12.2 °F41 %29.36 in10.0 miWSW (240°)18.4 mph32.2 mphClear
10:55 PM32.0 °F10.4 °F41 %29.36 in10.0 miWSW (250°)21.9 mph33.4 mphClear
11:15 PM32.0 °F10.4 °F41 %29.39 in10.0 miWSW (250°)17.3 mph27.6 mphClear
11:35 PM30.2 °F12.2 °F47 %29.39 in10.0 miWSW (250°)16.1 mph23.0 mphClear
11:55 PM30.2 °F10.4 °F44 %29.40 in10.0 miWest (260°)19.6 mph28.8 mphClear
Hourly data recorded from KRKD, located miles away from Belfast, Maine







STORIES FROM OUR PARTNERS